QPF
0.00 0.00 0.00 0.00 0.00 0.00 0.00 0.00 0.00 0.00 0.00 0.00 0.00 0.00 0.00 0.01 0.00 0.00 0.00 0.00 0.00 0.01 0.01 0.03 0.04 0.04 0.03 0.03 0.03 0.03 0.03 0.03 0.03 0.05 0.05 0.05 0.05 0.06 0.06 0.07 0.07 0.08 0.07 0.06 0.06 0.07 0.07 0.06 0.06
0.00 0.00 0.00 0.00 0.00 0.00 0.00 0.00 0.00 0.00 0.00 0.00 0.00 0.00 0.00 0.00 0.00 0.00 0.00 0.00 0.00 0.01 0.01 0.02 0.02 0.02 0.02 0.03 0.04 0.03 0.03 0.03 0.03 0.03 0.04 0.04 0.04 0.04 0.04 0.05 0.07 0.08 0.06 0.05 0.05 0.04 0.04 0.06 0.06
0.00 0.00 0.00 0.00 0.00 0.00 0.00 0.00 0.00 0.00 0.00 0.00 0.00 0.00 0.00 0.00 0.00 0.00 0.00 0.00 0.00 0.00 0.01 0.02 0.02 0.02 0.02 0.03 0.04 0.04 0.02 0.02 0.02 0.02 0.03 0.03 0.04 0.04 0.04 0.05 0.08 0.08 0.07 0.05 0.04 0.04 0.03 0.04 0.03
0.00 0.00 0.00 0.00 0.00 0.00 0.00 0.00 0.00 0.00 0.00 0.00 0.00 0.00 0.00 0.00 0.00 0.00 0.00 0.00 0.00 0.00 0.00 0.01 0.02 0.02 0.02 0.02 0.02 0.03 0.03 0.03 0.04 0.05 0.05 0.06 0.06 0.05 0.05 0.06 0.06 0.05 0.06 0.07 0.08 0.06 0.03 0.03 0.03
0.00 0.00 0.00 0.00 0.00 0.00 0.00 0.00 0.00 0.00 0.00 0.00 0.00 0.00 0.00 0.00 0.00 0.00 0.00 0.00 0.00 0.00 0.01 0.01 0.02 0.01 0.01 0.01 0.01 0.02 0.02 0.03 0.03 0.04 0.05 0.07 0.09 0.07 0.06 0.06 0.06 0.05 0.04 0.06 0.09 0.08 0.07 0.05 0.04
0.00 0.00 0.00 0.00 0.00 0.00 0.00 0.00 0.00 0.00 0.00 0.00 0.00 0.00 0.00 0.00 0.00 0.00 0.00 0.00 0.00 0.00 0.00 0.01 0.01 0.02 0.01 0.01 0.01 0.02 0.02 0.03 0.03 0.04 0.06 0.07 0.09 0.08 0.07 0.08 0.08 0.07 0.07 0.07 0.07 0.08 0.09 0.07 0.06
0.00 0.00 0.00 0.00 0.00 0.00 0.00 0.00 0.00 0.00 0.00 0.00 0.00 0.00 0.00 0.00 0.00 0.00 0.00 0.00 0.00 0.00 0.00 0.01 0.01 0.01 0.01 0.01 0.01 0.02 0.02 0.02 0.03 0.06 0.07 0.07 0.09 0.08 0.07 0.08 0.08 0.10 0.08 0.05 0.05 0.06 0.07 0.08 0.07
0.00 0.00 0.00 0.00 0.00 0.00 0.00 0.00 0.00 0.00 0.00 0.00 0.00 0.00 0.00 0.00 0.00 0.00 0.00 0.00 0.00 0.00 0.00 0.01 0.01 0.02 0.02 0.02 0.02 0.02 0.02 0.02 0.04 0.06 0.07 0.08 0.07 0.07 0.06 0.08 0.09 0.08 0.05 0.04 0.04 0.05 0.05 0.06 0.05
0.00 0.00 0.00 0.00 0.00 0.00 0.00 0.00 0.00 0.00 0.00 0.00 0.00 0.00 0.00 0.00 0.00 0.00 0.00 0.00 0.00 0.00 0.00 0.01 0.01 0.01 0.02 0.01 0.02 0.03 0.02 0.02 0.05 0.07 0.07 0.08 0.08 0.08 0.08 0.08 0.07 0.04 0.04 0.06 0.05 0.05 0.04 0.04 0.04
0.00 0.00 0.00 0.00 0.00 0.00 0.00 0.00 0.00 0.00 0.00 0.00 0.00 0.00 0.00 0.00 0.00 0.00 0.00 0.00 0.00 0.00 0.00 0.01 0.01 0.01 0.01 0.02 0.03 0.05 0.03 0.03 0.06 0.07 0.07 0.08 0.07 0.09 0.07 0.08 0.07 0.06 0.06 0.08 0.09 0.05 0.03 0.02 0.02
0.00 0.00 0.00 0.00 0.00 0.00 0.00 0.00 0.00 0.00 0.00 0.00 0.00 0.00 0.00 0.00 0.00 0.00 0.00 0.00 0.00 0.01 0.00 0.00 0.01 0.01 0.01 0.02 0.03 0.05 0.05 0.04 0.04 0.04 0.06 0.09 0.06 0.06 0.06 0.07 0.07 0.07 0.05 0.05 0.07 0.05 0.02 0.01 0.02
0.00 0.00 0.00 0.00 0.00 0.00 0.00 0.00 0.00 0.00 0.00 0.00 0.00 0.00 0.00 0.00 0.00 0.00 0.00 0.00 0.00 0.01 0.01 0.01 0.01 0.01 0.02 0.03 0.03 0.05 0.05 0.05 0.04 0.04 0.05 0.07 0.06 0.06 0.06 0.06 0.05 0.05 0.05 0.05 0.05 0.06 0.05 0.04 0.01
0.00 0.00 0.00 0.00 0.00 0.00 0.00 0.00 0.00 0.00 0.00 0.00 0.00 0.00 0.00 0.00 0.00 0.00 0.01 0.01 0.00 0.02 0.02 0.01 0.02 0.02 0.03 0.03 0.04 0.04 0.04 0.04 0.04 0.04 0.05 0.06 0.07 0.07 0.05 0.05 0.04 0.04 0.03 0.04 0.05 0.04 0.05 0.06 0.03
0.00 0.00 0.00 0.00 0.00 0.00 0.00 0.00 0.00 0.00 0.00 0.00 0.00 0.00 0.00 0.00 0.00 0.01 0.01 0.02 0.02 0.03 0.02 0.02 0.03 0.03 0.03 0.03 0.04 0.04 0.04 0.04 0.03 0.05 0.05 0.05 0.07 0.07 0.06 0.05 0.05 0.04 0.04 0.05 0.04 0.03 0.04 0.05 0.04
0.00 0.00 0.00 0.00 0.00 0.00 0.00 0.00 0.00 0.00 0.00 0.00 0.00 0.00 0.00 0.00 0.00 0.01 0.01 0.02 0.02 0.03 0.02 0.03 0.05 0.04 0.04 0.04 0.04 0.04 0.05 0.04 0.04 0.06 0.05 0.05 0.06 0.07 0.06 0.06 0.05 0.05 0.04 0.05 0.05 0.05 0.04 0.04 0.04
0.00 0.00 0.00 0.00 0.00 0.00 0.00 0.00 0.00 0.00 0.00 0.00 0.00 0.00 0.00 0.00 0.00 0.01 0.01 0.01 0.02 0.04 0.03 0.03 0.03 0.03 0.04 0.04 0.04 0.04 0.04 0.04 0.04 0.05 0.05 0.05 0.06 0.06 0.06 0.05 0.05 0.06 0.05 0.04 0.06 0.06 0.07 0.06 0.06
0.00 0.00 0.00 0.00 0.00 0.00 0.00 0.00 0.00 0.00 0.00 0.00 0.00 0.00 0.00 0.00 0.00 0.00 0.01 0.01 0.06 0.06 0.04 0.03 0.03 0.04 0.05 0.06 0.06 0.04 0.04 0.05 0.05 0.04 0.06 0.06 0.05 0.04 0.06 0.05 0.06 0.07 0.06 0.05 0.03 0.05 0.07 0.09 0.12
0.00 0.00 0.00 0.00 0.00 0.00 0.00 0.00 0.00 0.00 0.00 0.00 0.00 0.00 0.00 0.00 0.00 0.00 0.01 0.01 0.05 0.03 0.03 0.05 0.04 0.05 0.07 0.06 0.06 0.06 0.05 0.05 0.05 0.05 0.07 0.08 0.05 0.05 0.06 0.06 0.08 0.08 0.08 0.09 0.08 0.10 0.10 0.09 0.10
0.00 0.00 0.00 0.00 0.00 0.00 0.00 0.00 0.00 0.00 0.00 0.00 0.00 0.00 0.00 0.00 0.00 0.00 0.01 0.02 0.03 0.03 0.03 0.05 0.05 0.06 0.09 0.07 0.07 0.08 0.06 0.05 0.05 0.05 0.05 0.07 0.05 0.04 0.07 0.06 0.08 0.08 0.08 0.08 0.09 0.10 0.09 0.07 0.07
0.00 0.00 0.00 0.00 0.00 0.00 0.00 0.00 0.00 0.00 0.00 0.00 0.00 0.00 0.00 0.00 0.00 0.01 0.01 0.02 0.02 0.04 0.03 0.05 0.06 0.09 0.13 0.10 0.08 0.09 0.07 0.05 0.04 0.03 0.03 0.05 0.04 0.04 0.05 0.08 0.09 0.08 0.09 0.08 0.09 0.10 0.11 0.08 0.07
0.00 0.00 0.00 0.00 0.00 0.00 0.00 0.00 0.00 0.00 0.00 0.00 0.00 0.00 0.00 0.00 0.00 0.01 0.01 0.02 0.04 0.03 0.03 0.05 0.07 0.10 0.13 0.11 0.09 0.09 0.07 0.05 0.03 0.03 0.04 0.04 0.03 0.03 0.05 0.08 0.08 0.08 0.06 0.09 0.12 0.11 0.12 0.10 0.08
0.00 0.00 0.00 0.00 0.00 0.00 0.00 0.00 0.00 0.00 0.00 0.00 0.00 0.00 0.00 0.00 0.00 0.01 0.01 0.03 0.03 0.03 0.03 0.06 0.09 0.12 0.11 0.12 0.12 0.09 0.07 0.05 0.03 0.03 0.04 0.06 0.05 0.04 0.04 0.06 0.08 0.10 0.08 0.10 0.09 0.08 0.12 0.12 0.10
0.00 0.00 0.00 0.00 0.00 0.00 0.00 0.00 0.00 0.00 0.00 0.00 0.00 0.00 0.00 0.00 0.00 0.01 0.01 0.01 0.01 0.02 0.02 0.03 0.05 0.11 0.10 0.07 0.07 0.09 0.08 0.08 0.05 0.03 0.04 0.06 0.06 0.05 0.05 0.08 0.10 0.12 0.10 0.09 0.09 0.11 0.13 0.12 0.11
0.00 0.00 0.00 0.00 0.00 0.00 0.00 0.00 0.00 0.00 0.00 0.00 0.00 0.00 0.00 0.00 0.00 0.00 0.00 0.01 0.01 0.01 0.01 0.01 0.02 0.05 0.05 0.04 0.03 0.05 0.08 0.10 0.07 0.04 0.05 0.05 0.06 0.07 0.08 0.08 0.09 0.10 0.10 0.10 0.10 0.09 0.10 0.11 0.12
0.00 0.00 0.00 0.00 0.00 0.00 0.00 0.00 0.00 0.00 0.00 0.00 0.00 0.00 0.00 0.00 0.00 0.00 0.00 0.00 0.01 0.01 0.00 0.01 0.01 0.02 0.02 0.03 0.04 0.04 0.06 0.09 0.06 0.05 0.05 0.06 0.07 0.08 0.10 0.07 0.09 0.08 0.08 0.08 0.09 0.09 0.09 0.11 0.12
0.00 0.00 0.00 0.00 0.00 0.00 0.00 0.00 0.00 0.00 0.00 0.00 0.00 0.00 0.00 0.00 0.00 0.00 0.00 0.00 0.00 0.00 0.01 0.01 0.01 0.02 0.02 0.03 0.04 0.04 0.04 0.05 0.04 0.05 0.05 0.06 0.06 0.06 0.07 0.07 0.07 0.08 0.08 0.07 0.08 0.07 0.07 0.08 0.09
0.00 0.00 0.00 0.00 0.00 0.00 0.00 0.00 0.00 0.00 0.00 0.00 0.00 0.00 0.00 0.00 0.00 0.00 0.00 0.00 0.00 0.00 0.00 0.01 0.01 0.02 0.02 0.03 0.03 0.04 0.04 0.03 0.04 0.05 0.07 0.06 0.05 0.06 0.06 0.06 0.05 0.06 0.06 0.07 0.08 0.06 0.05 0.06 0.07
0.00 0.00 0.00 0.00 0.00 0.00 0.00 0.00 0.00 0.00 0.00 0.00 0.00 0.00 0.00 0.00 0.00 0.00 0.00 0.00 0.00 0.00 0.00 0.00 0.01 0.01 0.02 0.03 0.02 0.02 0.02 0.02 0.04 0.06 0.07 0.06 0.05 0.05 0.06 0.06 0.07 0.07 0.07 0.07 0.09 0.08 0.06 0.06 0.08
0.00 0.00 0.00 0.00 0.00 0.00 0.00 0.00 0.00 0.00 0.00 0.00 0.00 0.00 0.00 0.00 0.00 0.00 0.00 0.00 0.00 0.00 0.00 0.00 0.00 0.01 0.01 0.02 0.01 0.01 0.01 0.02 0.03 0.04 0.04 0.04 0.04 0.05 0.05 0.06 0.06 0.06 0.06 0.07 0.09 0.09 0.08 0.06 0.07
0.00 0.00 0.00 0.00 0.00 0.00 0.00 0.00 0.00 0.00 0.00 0.00 0.00 0.00 0.00 0.00 0.00 0.00 0.00 0.00 0.00 0.00 0.00 0.00 0.00 0.00 0.00 0.01 0.01 0.01 0.01 0.02 0.03 0.03 0.02 0.03 0.03 0.04 0.04 0.03 0.04 0.04 0.05 0.07 0.07 0.09 0.10 0.09 0.08
MSLP
1007.31 1007.92 1008.71 1009.58 1010.42 1011.16 1011.73 1012.13 1012.39 1012.54 1012.64 1012.75 1012.87 1013.01 1013.14 1013.23 1013.25 1013.20 1013.12 1013.04 1013.02 1013.13 1013.37 1013.75 1014.22 1014.70 1015.12 1015.42 1015.57 1015.56 1015.45 1015.29 1015.15 1015.08 1015.12 1015.25 1015.44 1015.64 1015.80 1015.89 1015.91 1015.87 1015.80 1015.75 1015.75 1015.82 1015.95 1016.12 1016.31
1007.45 1008.22 1009.14 1010.10 1010.99 1011.72 1012.24 1012.55 1012.68 1012.69 1012.67 1012.68 1012.73 1012.83 1012.95 1013.06 1013.12 1013.13 1013.10 1013.09 1013.13 1013.27 1013.55 1013.94 1014.40 1014.88 1015.29 1015.58 1015.72 1015.72 1015.62 1015.49 1015.38 1015.35 1015.41 1015.54 1015.72 1015.88 1015.98 1016.01 1015.96 1015.86 1015.76 1015.71 1015.73 1015.84 1016.02 1016.25 1016.49
1007.69 1008.57 1009.57 1010.57 1011.46 1012.14 1012.57 1012.77 1012.80 1012.71 1012.61 1012.56 1012.58 1012.68 1012.83 1012.98 1013.10 1013.16 1013.18 1013.21 1013.27 1013.43 1013.70 1014.08 1014.52 1014.96 1015.35 1015.63 1015.77 1015.80 1015.74 1015.66 1015.61 1015.62 1015.70 1015.84 1015.99 1016.11 1016.15 1016.11 1016.00 1015.87 1015.76 1015.72 1015.78 1015.94 1016.18 1016.46 1016.73
1008.01 1008.97 1010.00 1010.98 1011.81 1012.41 1012.74 1012.85 1012.79 1012.64 1012.50 1012.44 1012.48 1012.61 1012.81 1013.01 1013.17 1013.27 1013.33 1013.37 1013.44 1013.58 1013.82 1014.16 1014.56 1014.97 1015.33 1015.59 1015.75 1015.80 1015.79 1015.77 1015.78 1015.84 1015.96 1016.10 1016.23 1016.31 1016.30 1016.22 1016.07 1015.93 1015.83 1015.82 1015.93 1016.15 1016.45 1016.77 1017.05
1008.39 1009.36 1010.37 1011.29 1012.04 1012.53 1012.78 1012.81 1012.69 1012.53 1012.40 1012.37 1012.46 1012.64 1012.89 1013.13 1013.32 1013.45 1013.51 1013.55 1013.60 1013.71 1013.92 1014.21 1014.56 1014.92 1015.25 1015.50 1015.66 1015.75 1015.78 1015.81 1015.87 1015.98 1016.12 1016.27 1016.39 1016.44 1016.41 1016.30 1016.16 1016.03 1015.97 1016.02 1016.19 1016.47 1016.80 1017.14 1017.41
1008.77 1009.71 1010.65 1011.49 1012.12 1012.53 1012.70 1012.69 1012.56 1012.43 1012.35 1012.38 1012.53 1012.78 1013.07 1013.34 1013.55 1013.67 1013.72 1013.73 1013.76 1013.84 1014.00 1014.25 1014.56 1014.88 1015.18 1015.41 1015.56 1015.66 1015.72 1015.78 1015.88 1016.01 1016.17 1016.33 1016.44 1016.49 1016.46 1016.36 1016.25 1016.16 1016.16 1016.28 1016.51 1016.83 1017.19 1017.52 1017.77
1009.10 1009.97 1010.81 1011.53 1012.07 1012.39 1012.52 1012.50 1012.41 1012.34 1012.35 1012.47 1012.70 1013.00 1013.32 1013.61 1013.81 1013.91 1013.94 1013.93 1013.93 1013.98 1014.12 1014.34 1014.61 1014.90 1015.16 1015.37 1015.50 1015.59 1015.65 1015.71 1015.81 1015.95 1016.11 1016.27 1016.39 1016.45 1016.43 1016.37 1016.31 1016.29 1016.36 1016.54 1016.83 1017.18 1017.55 1017.85 1018.06
1009.34 1010.11 1010.83 1011.42 1011.86 1012.12 1012.24 1012.25 1012.24 1012.27 1012.39 1012.61 1012.91 1013.26 1013.61 1013.88 1014.06 1014.14 1014.15 1014.12 1014.11 1014.15 1014.29 1014.50 1014.76 1015.02 1015.25 1015.42 1015.52 1015.57 1015.60 1015.64 1015.71 1015.83 1015.98 1016.14 1016.26 1016.34 1016.36 1016.35 1016.35 1016.40 1016.54 1016.77 1017.10 1017.46 1017.82 1018.09 1018.26
1009.50 1010.13 1010.71 1011.18 1011.53 1011.75 1011.87 1011.95 1012.03 1012.18 1012.41 1012.73 1013.10 1013.49 1013.84 1014.11 1014.27 1014.33 1014.31 1014.28 1014.28 1014.35 1014.50 1014.73 1014.99 1015.25 1015.45 1015.58 1015.64 1015.64 1015.61 1015.60 1015.64 1015.72 1015.85 1015.99 1016.12 1016.22 1016.29 1016.33 1016.39 1016.50 1016.69 1016.97 1017.30 1017.67 1017.99 1018.23 1018.35
1009.58 1010.07 1010.51 1010.86 1011.12 1011.31 1011.45 1011.59 1011.77 1012.03 1012.37 1012.77 1013.21 1013.63 1013.98 1014.23 1014.37 1014.42 1014.41 1014.40 1014.44 1014.55 1014.74 1015.00 1015.29 1015.55 1015.74 1015.84 1015.85 1015.79 1015.70 1015.64 1015.62 1015.66 1015.76 1015.89 1016.03 1016.16 1016.27 1016.36 1016.47 1016.63 1016.84 1017.13 1017.46 1017.80 1018.09 1018.28 1018.37
1009.65 1010.00 1010.29 1010.52 1010.71 1010.86 1011.02 1011.21 1011.47 1011.82 1012.24 1012.71 1013.18 1013.62 1013.97 1014.21 1014.35 1014.40 1014.42 1014.45 1014.54 1014.71 1014.97 1015.28 1015.60 1015.87 1016.06 1016.13 1016.10 1016.00 1015.86 1015.74 1015.68 1015.69 1015.77 1015.90 1016.05 1016.20 1016.34 1016.48 1016.62 1016.80 1017.02 1017.29 1017.60 1017.89 1018.14 1018.30 1018.35
1009.76 1009.98 1010.14 1010.27 1010.38 1010.49 1010.65 1010.87 1011.18 1011.58 1012.04 1012.54 1013.03 1013.47 1013.81 1014.05 1014.19 1014.27 1014.32 1014.41 1014.57 1014.82 1015.14 1015.50 1015.86 1016.16 1016.35 1016.41 1016.36 1016.23 1016.06 1015.90 1015.81 1015.80 1015.88 1016.01 1016.18 1016.36 1016.53 1016.70 1016.86 1017.04 1017.24 1017.48 1017.74 1017.99 1018.19 1018.31 1018.36
1009.96 1010.08 1010.14 1010.17 1010.20 1010.27 1010.40 1010.62 1010.93 1011.34 1011.81 1012.31 1012.79 1013.21 1013.55 1013.78 1013.94 1014.05 1014.15 1014.30 1014.53 1014.84 1015.22 1015.63 1016.03 1016.35 1016.55 1016.62 1016.56 1016.42 1016.25 1016.09 1015.99 1015.98 1016.06 1016.21 1016.41 1016.61 1016.81 1016.99 1017.15 1017.32 1017.50 1017.69 1017.90 1018.10 1018.26 1018.36 1018.40
1010.28 1010.33 1010.31 1010.27 1010.24 1010.25 1010.34 1010.52 1010.80 1011.17 1011.61 1012.07 1012.51 1012.91 1013.23 1013.47 1013.65 1013.79 1013.95 1014.15 1014.42 1014.78 1015.20 1015.65 1016.06 1016.40 1016.62 1016.71 1016.67 1016.55 1016.39 1016.25 1016.17 1016.18 1016.27 1016.45 1016.66 1016.89 1017.11 1017.29 1017.45 1017.60 1017.74 1017.90 1018.06 1018.21 1018.35 1018.44 1018.49
1010.71 1010.72 1010.65 1010.56 1010.47 1010.43 1010.47 1010.59 1010.81 1011.11 1011.48 1011.88 1012.27 1012.63 1012.94 1013.18 1013.38 1013.56 1013.75 1013.99 1014.30 1014.68 1015.11 1015.56 1015.99 1016.33 1016.57 1016.68 1016.67 1016.59 1016.46 1016.35 1016.30 1016.33 1016.45 1016.64 1016.87 1017.12 1017.34 1017.53 1017.69 1017.82 1017.94 1018.05 1018.18 1018.31 1018.43 1018.53 1018.59
1011.20 1011.19 1011.10 1010.98 1010.86 1010.78 1010.76 1010.81 1010.95 1011.17 1011.45 1011.77 1012.10 1012.42 1012.71 1012.96 1013.18 1013.39 1013.61 1013.87 1014.18 1014.56 1014.98 1015.41 1015.82 1016.17 1016.42 1016.56 1016.59 1016.55 1016.47 1016.40 1016.37 1016.42 1016.55 1016.75 1016.98 1017.23 1017.46 1017.66 1017.81 1017.93 1018.04 1018.14 1018.24 1018.36 1018.48 1018.59 1018.67
1011.69 1011.67 1011.58 1011.46 1011.34 1011.23 1011.16 1011.15 1011.20 1011.32 1011.50 1011.73 1011.99 1012.27 1012.55 1012.81 1013.06 1013.29 1013.53 1013.80 1014.10 1014.45 1014.84 1015.24 1015.62 1015.96 1016.22 1016.38 1016.46 1016.47 1016.43 1016.39 1016.39 1016.44 1016.57 1016.75 1016.98 1017.22 1017.44 1017.64 1017.80 1017.93 1018.03 1018.13 1018.23 1018.35 1018.47 1018.60 1018.71
1012.10 1012.09 1012.03 1011.93 1011.82 1011.70 1011.60 1011.52 1011.49 1011.50 1011.58 1011.72 1011.92 1012.16 1012.43 1012.70 1012.98 1013.24 1013.51 1013.77 1014.06 1014.37 1014.71 1015.06 1015.42 1015.74 1016.01 1016.21 1016.33 1016.38 1016.38 1016.37 1016.37 1016.41 1016.51 1016.67 1016.87 1017.09 1017.31 1017.52 1017.69 1017.83 1017.94 1018.05 1018.16 1018.29 1018.42 1018.56 1018.69
1012.41 1012.42 1012.39 1012.34 1012.26 1012.15 1012.03 1011.89 1011.77 1011.68 1011.65 1011.70 1011.82 1012.03 1012.29 1012.59 1012.90 1013.20 1013.48 1013.75 1014.02 1014.30 1014.59 1014.90 1015.23 1015.54 1015.82 1016.05 1016.21 1016.31 1016.35 1016.35 1016.35 1016.37 1016.44 1016.55 1016.71 1016.91 1017.12 1017.33 1017.53 1017.69 1017.83 1017.96 1018.08 1018.21 1018.35 1018.49 1018.63
1012.59 1012.64 1012.67 1012.68 1012.65 1012.56 1012.42 1012.22 1012.01 1011.80 1011.66 1011.60 1011.66 1011.82 1012.08 1012.40 1012.75 1013.10 1013.42 1013.70 1013.97 1014.22 1014.48 1014.75 1015.05 1015.36 1015.65 1015.92 1016.13 1016.27 1016.34 1016.36 1016.35 1016.35 1016.37 1016.44 1016.56 1016.74 1016.95 1017.17 1017.39 1017.59 1017.76 1017.91 1018.04 1018.17 1018.29 1018.42 1018.56
1012.70 1012.79 1012.90 1012.99 1013.02 1012.96 1012.79 1012.53 1012.20 1011.87 1011.59 1011.42 1011.39 1011.50 1011.75 1012.10 1012.50 1012.90 1013.26 1013.58 1013.85 1014.09 1014.33 1014.58 1014.87 1015.17 1015.49 1015.79 1016.05 1016.23 1016.35 1016.39 1016.38 1016.35 1016.34 1016.37 1016.46 1016.62 1016.83 1017.07 1017.32 1017.56 1017.76 1017.92 1018.06 1018.17 1018.28 1018.38 1018.49
1012.77 1012.94 1013.15 1013.33 1013.42 1013.37 1013.18 1012.83 1012.38 1011.90 1011.47 1011.17 1011.03 1011.09 1011.32 1011.69 1012.13 1012.59 1013.01 1013.37 1013.66 1013.91 1014.14 1014.38 1014.65 1014.96 1015.30 1015.64 1015.94 1016.17 1016.32 1016.39 1016.39 1016.36 1016.33 1016.34 1016.41 1016.57 1016.79 1017.05 1017.34 1017.60 1017.83 1018.01 1018.14 1018.23 1018.30 1018.37 1018.45
1012.87 1013.15 1013.46 1013.74 1013.89 1013.85 1013.61 1013.17 1012.58 1011.94 1011.34 1010.89 1010.64 1010.62 1010.83 1011.21 1011.69 1012.21 1012.68 1013.09 1013.41 1013.67 1013.89 1014.12 1014.39 1014.70 1015.05 1015.42 1015.76 1016.04 1016.24 1016.34 1016.36 1016.34 1016.31 1016.31 1016.39 1016.55 1016.78 1017.08 1017.39 1017.69 1017.94 1018.13 1018.24 1018.31 1018.34 1018.36 1018.40
1013.02 1013.43 1013.87 1014.23 1014.43 1014.40 1014.09 1013.54 1012.81 1012.00 1011.24 1010.63 1010.26 1010.17 1010.33 1010.72 1011.23 1011.80 1012.33 1012.78 1013.13 1013.40 1013.62 1013.84 1014.09 1014.39 1014.75 1015.13 1015.50 1015.82 1016.05 1016.19 1016.25 1016.25 1016.23 1016.25 1016.34 1016.51 1016.77 1017.09 1017.43 1017.75 1018.01 1018.20 1018.30 1018.33 1018.33 1018.31 1018.33
1013.23 1013.77 1014.31 1014.76 1014.99 1014.95 1014.58 1013.92 1013.06 1012.09 1011.18 1010.43 1009.95 1009.78 1009.90 1010.28 1010.82 1011.42 1011.99 1012.47 1012.85 1013.13 1013.34 1013.54 1013.77 1014.06 1014.40 1014.78 1015.16 1015.51 1015.78 1015.95 1016.04 1016.06 1016.07 1016.11 1016.22 1016.41 1016.68 1017.02 1017.38 1017.71 1017.98 1018.17 1018.25 1018.26 1018.23 1018.18 1018.18
1013.44 1014.09 1014.72 1015.22 1015.47 1015.40 1014.98 1014.24 1013.26 1012.18 1011.14 1010.29 1009.73 1009.49 1009.58 1009.95 1010.49 1011.11 1011.71 1012.22 1012.62 1012.90 1013.10 1013.28 1013.48 1013.74 1014.06 1014.42 1014.80 1015.15 1015.43 1015.63 1015.74 1015.79 1015.83 1015.89 1016.01 1016.21 1016.50 1016.84 1017.21 1017.55 1017.82 1017.99 1018.07 1018.07 1018.02 1017.96 1017.95
1013.59 1014.30 1014.97 1015.49 1015.75 1015.65 1015.18 1014.39 1013.35 1012.20 1011.10 1010.19 1009.58 1009.31 1009.37 1009.73 1010.27 1010.90 1011.51 1012.03 1012.44 1012.72 1012.92 1013.08 1013.25 1013.47 1013.76 1014.10 1014.45 1014.79 1015.07 1015.28 1015.41 1015.48 1015.53 1015.60 1015.73 1015.94 1016.22 1016.57 1016.93 1017.26 1017.53 1017.70 1017.77 1017.76 1017.71 1017.66 1017.66
1013.60 1014.31 1014.98 1015.47 1015.70 1015.58 1015.09 1014.28 1013.24 1012.10 1011.00 1010.10 1009.48 1009.20 1009.26 1009.59 1010.13 1010.75 1011.36 1011.89 1012.30 1012.58 1012.78 1012.94 1013.10 1013.30 1013.55 1013.86 1014.19 1014.50 1014.77 1014.97 1015.10 1015.17 1015.23 1015.30 1015.43 1015.63 1015.91 1016.24 1016.60 1016.92 1017.18 1017.35 1017.42 1017.41 1017.36 1017.32 1017.33
1013.43 1014.07 1014.66 1015.09 1015.26 1015.12 1014.65 1013.88 1012.89 1011.82 1010.80 1009.96 1009.39 1009.13 1009.19 1009.51 1010.02 1010.62 1011.22 1011.74 1012.15 1012.46 1012.67 1012.84 1013.01 1013.21 1013.45 1013.74 1014.04 1014.33 1014.57 1014.75 1014.86 1014.93 1014.98 1015.05 1015.17 1015.37 1015.63 1015.95 1016.29 1016.60 1016.85 1017.01 1017.09 1017.09 1017.05 1017.02 1017.05
1013.07 1013.58 1014.04 1014.37 1014.48 1014.33 1013.89 1013.20 1012.34 1011.40 1010.51 1009.77 1009.28 1009.06 1009.12 1009.42 1009.89 1010.45 1011.02 1011.53 1011.95 1012.28 1012.54 1012.75 1012.96 1013.19 1013.45 1013.73 1014.01 1014.28 1014.49 1014.64 1014.74 1014.79 1014.83 1014.89 1015.00 1015.19 1015.44 1015.75 1016.07 1016.38 1016.62 1016.79 1016.87 1016.88 1016.85 1016.83 1016.86
Thickness
5851 5855 5857 5851 5838 5817 5798 5803 5810 5805 5803 5808 5807 5803 5795 5787 5782 5767 5785 5791 5788 5784 5778 5770 5767 5766 5765 5765 5764 5764 5763 5762 5761 5761 5760 5759 5759 5759 5758 5758 5757 5757 5757 5756 5756 5755 5755 5754 5754
5861 5860 5856 5850 5829 5799 5792 5806 5804 5804 5807 5811 5807 5803 5795 5786 5788 5784 5787 5788 5788 5784 5779 5772 5766 5765 5764 5763 5762 5762 5761 5760 5760 5759 5758 5758 5757 5757 5756 5756 5755 5755 5755 5755 5754 5754 5753 5753 5752
5864 5863 5854 5844 5820 5802 5796 5808 5807 5810 5814 5810 5802 5802 5794 5784 5786 5787 5790 5789 5788 5783 5778 5770 5766 5764 5762 5761 5761 5760 5759 5759 5758 5757 5756 5756 5755 5755 5755 5754 5753 5753 5753 5753 5752 5752 5751 5751 5751
5865 5861 5856 5837 5812 5813 5814 5815 5816 5811 5811 5811 5806 5794 5792 5792 5793 5793 5792 5791 5788 5782 5779 5769 5765 5763 5761 5760 5759 5758 5757 5757 5756 5755 5755 5754 5754 5753 5753 5752 5752 5752 5751 5751 5750 5750 5750 5750 5749
5869 5859 5841 5824 5816 5820 5825 5824 5822 5813 5808 5809 5806 5791 5784 5791 5798 5795 5791 5790 5787 5783 5778 5770 5763 5761 5759 5758 5757 5756 5756 5755 5755 5754 5753 5753 5752 5752 5751 5751 5750 5750 5749 5749 5749 5748 5748 5748 5747
5863 5858 5832 5815 5814 5822 5827 5830 5825 5815 5809 5808 5804 5793 5783 5792 5794 5793 5792 5790 5788 5783 5778 5769 5762 5760 5758 5757 5756 5755 5754 5753 5753 5753 5752 5751 5751 5750 5750 5749 5748 5748 5747 5747 5747 5747 5747 5746 5745
5857 5849 5828 5823 5818 5819 5825 5834 5826 5817 5810 5809 5810 5794 5786 5791 5794 5794 5791 5788 5786 5783 5778 5772 5767 5761 5758 5756 5755 5754 5753 5752 5752 5751 5750 5750 5749 5748 5748 5748 5747 5746 5746 5746 5746 5746 5745 5745 5744
5868 5855 5835 5829 5822 5820 5832 5834 5830 5824 5814 5819 5816 5797 5788 5792 5795 5793 5789 5785 5782 5780 5778 5771 5769 5765 5762 5758 5754 5752 5751 5751 5750 5750 5749 5749 5748 5748 5747 5747 5746 5745 5745 5745 5745 5744 5744 5744 5744
5871 5852 5831 5831 5827 5827 5837 5831 5829 5833 5822 5818 5817 5814 5808 5801 5796 5790 5784 5781 5776 5775 5775 5773 5770 5765 5763 5761 5756 5753 5751 5750 5750 5750 5749 5749 5751 5750 5748 5747 5745 5745 5744 5744 5744 5743 5743 5743 5743
5866 5846 5837 5845 5845 5839 5837 5833 5830 5825 5817 5812 5809 5809 5807 5800 5794 5788 5783 5778 5775 5772 5773 5771 5768 5765 5764 5761 5757 5755 5755 5752 5752 5751 5751 5751 5750 5750 5749 5745 5744 5744 5744 5743 5743 5743 5743 5745 5747
5862 5849 5851 5853 5855 5850 5841 5837 5838 5827 5815 5816 5810 5805 5803 5799 5794 5790 5786 5783 5780 5776 5773 5771 5768 5764 5763 5760 5758 5756 5755 5753 5752 5751 5750 5750 5750 5749 5749 5747 5746 5745 5745 5746 5744 5746 5748 5749 5748
5858 5856 5856 5856 5858 5851 5845 5841 5836 5832 5828 5833 5827 5817 5807 5800 5796 5793 5788 5785 5782 5777 5773 5771 5767 5762 5760 5759 5758 5755 5755 5754 5753 5750 5750 5750 5750 5750 5749 5747 5748 5747 5748 5747 5748 5747 5747 5747 5747
5855 5853 5859 5861 5859 5855 5849 5843 5837 5834 5837 5837 5829 5818 5810 5805 5801 5797 5793 5787 5782 5777 5774 5771 5766 5761 5758 5756 5756 5756 5755 5755 5754 5751 5750 5749 5751 5750 5749 5747 5747 5749 5749 5748 5747 5747 5746 5746 5747
5855 5857 5857 5859 5857 5853 5845 5842 5838 5834 5839 5832 5824 5817 5814 5809 5805 5798 5791 5786 5782 5778 5775 5772 5766 5762 5758 5756 5755 5756 5756 5753 5755 5753 5751 5750 5750 5749 5748 5748 5747 5748 5748 5749 5748 5748 5747 5747 5748
5862 5853 5851 5854 5854 5852 5848 5833 5835 5840 5839 5829 5823 5819 5815 5811 5807 5800 5795 5789 5785 5780 5777 5772 5768 5764 5760 5759 5757 5757 5756 5756 5754 5753 5751 5750 5750 5748 5749 5749 5748 5749 5748 5747 5747 5747 5748 5748 5748
5857 5848 5838 5845 5851 5851 5840 5826 5841 5846 5838 5828 5824 5820 5815 5811 5809 5804 5800 5794 5790 5784 5778 5774 5772 5767 5763 5760 5758 5759 5757 5756 5755 5754 5752 5751 5750 5749 5748 5750 5750 5748 5749 5749 5748 5749 5748 5749 5749
5844 5836 5835 5839 5850 5849 5840 5833 5843 5848 5840 5830 5826 5822 5817 5811 5809 5807 5803 5798 5792 5786 5780 5775 5772 5768 5765 5761 5758 5758 5757 5756 5755 5754 5753 5751 5750 5750 5749 5750 5750 5748 5750 5750 5751 5750 5749 5747 5747
5831 5835 5833 5834 5846 5846 5839 5840 5845 5847 5841 5834 5830 5825 5819 5814 5811 5810 5806 5801 5795 5789 5783 5778 5773 5770 5766 5763 5759 5758 5758 5757 5756 5755 5753 5752 5751 5750 5750 5750 5749 5750 5750 5749 5749 5747 5747 5747 5746
5839 5835 5832 5836 5847 5842 5839 5840 5845 5846 5841 5836 5832 5828 5822 5819 5818 5814 5808 5804 5797 5791 5785 5780 5775 5771 5767 5764 5760 5758 5758 5758 5757 5756 5754 5752 5752 5751 5750 5752 5750 5750 5750 5749 5749 5748 5746 5746 5747
5835 5831 5832 5836 5843 5839 5838 5840 5848 5847 5842 5841 5837 5831 5827 5823 5818 5812 5808 5804 5799 5793 5788 5783 5777 5773 5770 5767 5763 5761 5760 5760 5759 5758 5755 5754 5753 5752 5752 5750 5751 5751 5749 5748 5747 5746 5745 5746 5747
5831 5830 5832 5830 5836 5841 5835 5834 5840 5846 5846 5844 5843 5840 5835 5828 5822 5815 5810 5806 5802 5796 5791 5788 5781 5776 5772 5769 5766 5763 5760 5758 5759 5758 5757 5756 5754 5753 5751 5751 5751 5750 5750 5749 5747 5747 5744 5743 5745
5823 5837 5834 5830 5826 5828 5828 5819 5834 5842 5840 5841 5842 5841 5837 5833 5827 5821 5814 5809 5805 5800 5796 5790 5784 5778 5774 5771 5768 5764 5760 5758 5759 5759 5759 5756 5754 5753 5752 5751 5750 5750 5751 5749 5748 5750 5746 5743 5742
5831 5837 5834 5830 5826 5821 5826 5818 5832 5841 5835 5841 5844 5844 5842 5837 5832 5825 5819 5813 5809 5805 5799 5793 5786 5781 5777 5773 5769 5765 5763 5762 5762 5761 5758 5756 5756 5754 5753 5751 5750 5749 5750 5749 5748 5747 5745 5744 5743
5832 5830 5827 5827 5826 5804 5815 5811 5818 5839 5838 5842 5846 5845 5843 5840 5834 5828 5823 5817 5811 5807 5801 5796 5788 5782 5779 5775 5771 5767 5764 5762 5760 5758 5757 5756 5756 5754 5753 5752 5750 5750 5749 5748 5746 5745 5744 5744 5742
5826 5815 5802 5798 5800 5803 5816 5810 5821 5842 5846 5846 5845 5845 5844 5841 5835 5828 5822 5816 5811 5807 5802 5797 5790 5784 5780 5777 5773 5770 5767 5763 5760 5758 5757 5756 5756 5754 5753 5752 5750 5749 5748 5747 5746 5744 5744 5743 5741
5820 5820 5798 5787 5794 5808 5808 5809 5831 5847 5849 5850 5850 5849 5844 5840 5837 5830 5825 5819 5813 5808 5804 5798 5792 5786 5782 5778 5775 5772 5769 5766 5765 5761 5759 5757 5756 5756 5754 5751 5749 5748 5747 5746 5745 5744 5743 5742 5741
5813 5816 5831 5813 5804 5798 5810 5818 5835 5845 5844 5846 5845 5844 5841 5839 5837 5832 5827 5822 5816 5810 5805 5801 5794 5788 5784 5780 5776 5772 5769 5766 5765 5762 5759 5758 5755 5755 5753 5750 5748 5747 5745 5744 5743 5743 5741 5741 5741
5822 5824 5813 5804 5783 5781 5797 5804 5816 5828 5834 5839 5839 5839 5840 5839 5836 5832 5828 5823 5819 5813 5808 5803 5796 5790 5786 5782 5778 5775 5771 5768 5765 5762 5759 5756 5755 5753 5751 5749 5747 5745 5744 5743 5741 5741 5740 5738 5738
5803 5805 5808 5808 5805 5787 5785 5805 5834 5831 5835 5836 5839 5841 5841 5839 5837 5833 5829 5825 5820 5816 5809 5802 5796 5791 5787 5784 5780 5776 5772 5769 5765 5762 5759 5757 5755 5753 5750 5748 5746 5744 5742 5741 5739 5739 5737 5736 5735
5813 5811 5806 5792 5787 5793 5794 5808 5840 5839 5841 5840 5840 5841 5842 5841 5839 5835 5830 5825 5820 5815 5810 5804 5798 5793 5789 5785 5780 5776 5772 5769 5765 5762 5760 5757 5754 5752 5750 5747 5745 5743 5740 5738 5737 5736 5735 5733 5732